Location: Franzen
(48.6167°N, 15.3833°E)
Time: 08:09:55
(UTC+00:00)

A-11 Canister half - Pass Details

Date: 05 August 2021
Orbit: 1515 x 1685 km, 47.2° (Epoch: 21 September)

Event Time Altitude Azimuth Distance (km) Brightness Sun altitude
Rises 13:16:30 0° 197° (SSW) 4,719 12.1 48.4°
Reaches altitude 10° 13:20:07 10° 186° (S) 3,764 11.6 47.9°
Maximum altitude 13:27:41 27° 133° (SE) 2,703 10.5 46.9°
Drops below altitude 10° 13:35:27 10° 80° (E) 3,885 10.8 45.8°
Sets 13:39:14 0° 70° (ENE) 4,898 11.2 45.3°
